Regional Weather Roundup
Issued by NWS

Home | Current Version | Previous Version | Graphics & Text | Print | Product List | Glossary Off
Versions: 1 2 3 4 5 6 7 8 9 10 11 12 13 14 15 16 17 18 19 20 21 22 23 24 25 26 27 28 29 30 31 32 33 34 35 36 37 38 39 40 41 42 43 44 45 46 47 48 49 50

000
ASUS43 KMKX 271621
RWRWI

WISCONSIN REGIONAL WEATHER ROUNDUP
NATIONAL WEATHER SERVICE MILWAUKEE/SULLIVAN WI
1100 AM CDT THU AUG 27 2015

NOTE: "FAIR" INDICATES FEW OR NO CLOUDS BELOW 12,000 FEET WITH NO
SIGNIFICANT WEATHER AND/OR OBSTRUCTIONS TO VISIBILITY.

WIZ001-002-006>008-014>016-023>028-271700-
NORTHWEST WISCONSIN

CITY           SKY/WX    TMP DP  RH WIND       PRES   REMARKS
SUPERIOR ARPT  MOSUNNY   61  55  78 CALM      30.09F
ASHLAND        SUNNY     68  57  68 CALM      30.12F
HAYWARD        MOSUNNY   67  55  65 S7        30.13S
SIREN          CLOUDY    67  56  66 SE8       30.10F
CUMBERLAND     PTSUNNY   64  55  72 S6        30.13S
RICE LAKE      PTSUNNY   66  57  73 SE6       30.14F
CHETEK         CLOUDY   N/A N/A N/A MISG      30.14S
LADYSMITH      SUNNY     67  56  67 S7        30.17R
EAU CLAIRE     MOSUNNY   71  56  58 VRB5      30.13S
MENOMONIE      PTSUNNY   67  57  70 SE5       30.13S
NEW RICHMOND   CLOUDY    68  56  64 S8        30.11S
OSCEOLA        CLOUDY    68  57  68 SE10      30.12F
$$

WIZ003>005-009-010-017-018-271700-
NORTH CENTRAL WISCONSIN

CITY           SKY/WX    TMP DP  RH WIND       PRES   REMARKS
MANITOWISH WTR SUNNY     64  53  66 SW6       30.15S
ARBOR VITAE    SUNNY     65  53  65 SW7       30.15S
WOODRUFF       SUNNY     65  53  65 SW7       30.15S
RHINELANDER    SUNNY     66  53  63 SW7       30.17S
EAGLE RIVER    SUNNY     63  51  64 SW5       30.15F
LAND O LAKES   SUNNY     64  51  62 SW3       30.16F
PHILLIPS       MOSUNNY   67  55  66 S6        30.15R
TOMAHAWK       SUNNY     65  53  65 CALM      30.16F
MEDFORD        SUNNY     66  56  70 S8        30.17R
MERRILL        SUNNY     67  56  69 CALM      30.17S
$$

WIZ029-030-035-036-043>047-271700-
CENTRAL WISCONSIN

CITY           SKY/WX    TMP DP  RH WIND       PRES   REMARKS
WAUSAU         SUNNY     67  55  65 VRB3      30.15F
MOSINEE        SUNNY     66  55  68 CALM      30.18S
MARSHFIELD     SUNNY     70  54  56 S10       30.16S
STEVENS POINT  SUNNY     67  53  61 S7        30.17S
WAUPACA        SUNNY     70  57  62 CALM      30.17F
WAUTOMA        SUNNY     71  56  59 SW5       30.18S
WISC RAPIDS    SUNNY     69  55  60 SW8       30.17F
CAMP DOUGLAS   MOSUNNY   70  64  83 S7        30.14F
$$

WIZ011>013-019>022-031-037>040-048>050-271700-
NORTHEAST WISCONSIN

CITY           SKY/WX    TMP DP  RH WIND       PRES   REMARKS
ANTIGO         SUNNY     66  54  64 SW3       30.17F
SHAWANO        PTSUNNY   58  57  96 CALM      30.18F
OCONTO         CLOUDY    56  56 100 W5        30.18R
STURGEON BAY   SUNNY     63  55  77 CALM      30.19S
GREEN BAY      MOSUNNY   63  58  83 CALM      30.18S
MANITOWOC      SUNNY     66  58  75 MISG      30.18S
APPLETON       SUNNY     66  57  72 CALM      30.16F
CLINTONVILLE   MOSUNNY   61  59  94 CALM      30.18S
OSHKOSH        SUNNY     68  58  70 SW5       30.17F
$$

WIZ032>034-041-042-053>061-271700-
SOUTHWEST WISCONSIN

CITY           SKY/WX    TMP DP  RH WIND       PRES   REMARKS
LA CROSSE      SUNNY     69  56  62 S9        30.14F
SPARTA         SUNNY     71  55  55 SW3       30.15S
VIROQUA        SUNNY     68  56  64 S7        30.17R
BOSCOBEL       SUNNY     72  59  63 W3        30.16F
PRAIRIE DU CHI MOSUNNY   67  57  68 CALM      30.15S
PLATTEVILLE    MOSUNNY   67  60  80 S5        30.18R
$$

WIZ056-057-062-063-064-067-068-271700-
SOUTH CENTRAL WISCONSIN

CITY           SKY/WX    TMP DP  RH WIND       PRES   REMARKS
REEDSBURG      SUNNY     68  57  68 S5        30.16F
BARABOO/DELLS  SUNNY     69  55  60 CALM      30.17S
LONE ROCK      SUNNY     69  57  65 S8        30.17F
MINERAL POINT  SUNNY     70  59  68 S6        30.18S
MADISON        MOSUNNY   68  56  65 S5        30.18R
MIDDLETON      SUNNY     72  56  58 SW7       30.18S
WATERTOWN      SUNNY     67  59  74 S6        30.18F
MONROE         SUNNY     68  57  68 S7        30.19S
JANESVILLE     MOSUNNY   70  57  64 SW8       30.18S
$$

WIZ051-052-058>065-066-070>072-271700-
SOUTHEAST WISCONSIN

CITY           SKY/WX    TMP DP  RH WIND       PRES   REMARKS
MILWAUKEE      MOSUNNY   68  55  63 SE9       30.19S
WAUKESHA       MOSUNNY   64  55  72 CALM      30.20S
MILWAUKEE/TIMM SUNNY     68  54  60 SW5       30.20S
RACINE         SUNNY     67  52  58 S10       30.22R
BURLINGTON     SUNNY     67  54  61 SE3       30.19S
KENOSHA        MOSUNNY   69  54  58 S8        30.20S
FOND DU LAC    SUNNY     68  59  73 CALM      30.17F
SHEBOYGAN      SUNNY     69  59  70 VRB3      30.17F
WEST BEND      SUNNY     68  55  64 SW3       30.18F
JUNEAU         SUNNY     65  57  77 SW6       30.19F
$$

LSZ147-162-271700-
LAKE SUPERIOR

STATION/POSITION TIME  TEMP    WIND        PRES    WAVE
                       AIR SEA DIR/SP/G            HT/PER
                 (UTC) (F)     (DEG/KT/KT) (MB)    (FT/S)
W MID LAKE BUOY  1550   56 55  160/  4/  4 1019.8F   0
DEVILS ISLAND    1600   57      20/  2/  2 1019.8F
PORT WING        1540   57     350/  4/  5 1019.6F
SAXON HARBOR     1540   61      CALM  /  3 1019.6S
$$

LMZ867-665-643>646-271700-
LAKE MICHIGAN

STATION/POSITION TIME  TEMP    WIND        PRES    WAVE
                       AIR SEA DIR/SP/G            HT/PER
                 (UTC) (F)     (DEG/KT/KT) (MB)    (FT/S)
CHAMBERS ISLAND  1500   60      70/  5/  6 1021.3F
S GREEN BAY BUOY 1600   55     250/  6/  8 1023.2R
N MID LAKE BUOY  1550   61 64  100/  6/  8 1021.5F   0
NORTHPORT PIER   1500   61     110/  5/  7 1021.7S
SISTER BAY       1549   67     130/  8/ 11   N/A
ALGOMA LAKESHORE 1514             CALM       N/A
KEWAUNEE LAKESHO 1600   52     160/  7/  8 1020.8R
SHEBOYGAN LAKESH 1600   57     180/ 14/ 14 1022.3F
PORT WASHINGTON  1500   60     200/  4/  7 1023.0R
ATWATER BUOY     1600   53 48  150/  6/  8 1023.7R
MILWAUKEE LAKESH 1600   58      60/  1/  2   N/A
S MID LAKE BUOY  1550   64 67  140/  8/ 10 1022.6R
KENOSHA   LAKESH 1600   60     150/  6/  6 1022.4S
$$

TC  - TEMPERATURE IN CELSIUS
VSB - VISIBILITY IN STATUTE MILES
WCI - WIND CHILL INDEX
HX  - HEAT INDEX




USA.gov is the U.S. government's official web portal to all federal, state and local government web resources and services.